Regional Weather Roundup
Issued by NWS

Home | Current Version | Previous Version | Text Only | Print | Product List | Glossary On
Versions: 1 2 3 4 5 6 7 8 9 10 11 12 13 14 15 16 17 18 19 20 21 22 23 24 25 26 27
000
ASPQ40 PGUM 261312
RWRPQ
WEATHER ROUNDUP FOR THE MARIANAS AND MICRONESIA
NATIONAL WEATHER SERVICE TIYAN GU
1100 PM CHST TUE SEP 26 2017

GUZ001>004-261400-
MARIANA ISLANDS-

CITY           SKY/WX    TMP DP  RH WIND       PRES   REMARKS
GUAM AIRPORT   PTCLDY    82  79  89 E9        29.88S HX  93
ANDERSEN AFB   PTCLDY    81  77  89 E12       29.89
ROTA AIRPORT   NOT AVBL
TINIAN AP      NOT AVBL
SAIPAN AP      MOCLDY    82  79  89 E13       29.88S HX  93

$$

PMZ161-261400-
REPUBLIC OF PALAU-

CITY           SKY/WX    TMP DP  RH WIND       PRES   REMARKS
KOROR AP       CLOUDY    77  75  94 NE3       29.87R
KOROR WSO      CLOUDY    79  75  89 NW5       29.88R

$$

PMZ171>174-261400-
FEDERATED STATES OF MICRONESIA-

CITY           SKY/WX    TMP DP  RH WIND       PRES   REMARKS
YAP AIRPORT    CLOUDY    81  75  83 VRB6      29.84S
CHUUK AP       LGT RAIN  81  75  83 VRB5      29.83F
POHNPEI AP     NOT AVBL
POHNPEI WSO    CLOUDY    79  75  89 SE5       29.84F
KOSRAE AP      NOT AVBL

$$

PMZ181-261400-
REPUBLIC OF THE MARSHALL ISLANDS-

CITY           SKY/WX    TMP DP  RH WIND       PRES   REMARKS
KWAJALEIN AP   CLEAR     79  73  83 CALM      29.85S
MAJURO AP      NOT AVBL
MAJURO WSO     MOCLDY    84  72  65 E12       29.83F

$$





USA.gov is the U.S. government's official web portal to all federal, state and local government web resources and services.